Montgomery, NY

5:32 PM EST on November 21, 2019 (GMT -0500)
Orange County

Weather History for KMGJ - July, 2019

Change the Weather History Date:

Wednesday, July 17, 2019

  Actual Average (KSWF) Record (KSWF)
Temperature  
Mean Temperature 80 °F -  
Max Temperature 90 °F 80 °F 100 °F (1999)
Min Temperature 70 °F 60 °F 46 °F (1974)
Cooling Degree Days 15    
Growing Degree Days 30 (Base 50)    
Moisture  
Dew Point 71 °F    
Average Humidity 84    
Maximum Humidity 100    
Minimum Humidity 53    
Precipitation  
Precipitation 0.35 in - - ()
Sea Level Pressure  
Sea Level Pressure 29.92 in    
Wind  
Wind Speed 5 mph (West)    
Max Wind Speed 23 mph    
Max Gust Speed 29 mph    
Visibility 10 miles    
Events Rain , Thunderstorm    
Averages and records for this station are not official NWS values.
T = Trace of Precipitation, MM = Missing Value Source: NWS Daily Summary

Daily Weather History Graph

Daily Weather History Graph

Search for Another Location

Airport or City:

Astronomy

Jul. 17, 2019 Rise Set
Actual Time 5:37 AM EDT 8:28 PM EDT
Civil Twilight 5:04 AM EDT 9:00 PM EDT
Nautical Twilight 4:23 AM EDT 9:42 PM EDT
Astronomical Twilight 3:35 AM EDT 10:29 PM EDT
Moon 9:14 PM EDT (7/17) 6:07 AM EDT (7/17)
Length of Visible Light 15h 55m
Length of Day
14h 50m
Waxing Gibbous, 99% of the Moon is Illuminated
Jul 17
Waxing Gibbous
Jul 24
Last Quarter
Jul 31
New
Aug 7
First Quarter
Aug 15
Full

Hourly Weather History & Observations

Time (EDT) Temp. Heat Index Dew Point Humidity Pressure Visibility Wind Dir Wind Speed Gust Speed Precip Events Conditions
12:54 AM 71.1 °F - 69.1 °F 93% 29.99 in 10.0 mi WSW 5.8 mph - N/A   Clear
1:54 AM 71.1 °F - 69.1 °F 93% 29.97 in 10.0 mi SW 3.5 mph - N/A   Clear
2:54 AM 70.0 °F - 69.1 °F 97% 29.96 in 10.0 mi Calm Calm - N/A   Mostly Cloudy
3:54 AM 70.0 °F - 69.1 °F 97% 29.94 in 10.0 mi SSW 3.5 mph - N/A   Mostly Cloudy
4:54 AM 71.1 °F - 69.1 °F 93% 29.96 in 10.0 mi Calm Calm - N/A   Mostly Cloudy
5:54 AM 71.1 °F - 69.1 °F 93% 29.96 in 10.0 mi Calm Calm - N/A   Overcast
6:54 AM 73.0 °F - 70.0 °F 90% 29.95 in 10.0 mi Calm Calm - N/A   Partly Cloudy
7:54 AM 73.9 °F - 69.1 °F 85% 29.96 in 10.0 mi SW 3.5 mph - N/A   Clear
8:54 AM 77.0 °F - 69.1 °F 76% 29.96 in 10.0 mi SSW 8.1 mph - N/A   Mostly Cloudy
9:54 AM 79.0 °F - 70.0 °F 74% 29.96 in 10.0 mi SSW 4.6 mph - N/A   Mostly Cloudy
10:54 AM 84.0 °F 88.4 °F 70.0 °F 63% 29.94 in 10.0 mi West 10.4 mph - N/A   Partly Cloudy
11:54 AM 88.0 °F 92.9 °F 70.0 °F 55% 29.93 in 10.0 mi West 9.2 mph - N/A   Clear
12:54 PM 89.1 °F 94.1 °F 70.0 °F 53% 29.91 in 10.0 mi WNW 5.8 mph - N/A   Partly Cloudy
1:54 PM 84.0 °F 90.2 °F 73.0 °F 69% 29.88 in 10.0 mi SW 6.9 mph - 0.00 in   Scattered Clouds
2:39 PM 90.0 °F 97.9 °F 73.0 °F 57% 29.89 in 10.0 mi SW 11.5 mph - N/A Thunderstorm Mostly Cloudy
2:54 PM 86.0 °F 92.2 °F 72.0 °F 63% 29.88 in 10.0 mi SW 23.0 mph 28.8 mph N/A   Partly Cloudy
3:54 PM 80.1 °F 84.2 °F 73.0 °F 79% 29.88 in 10.0 mi Calm Calm - 0.08 in   Mostly Cloudy
4:04 PM 79.0 °F - 73.9 °F 84% 29.89 in 10.0 mi West 10.4 mph 17.3 mph N/A Thunderstorm Thunderstorm
4:19 PM 80.1 °F 84.5 °F 73.9 °F 81% 29.88 in 10.0 mi NW 6.9 mph - 0.00 in Rain Light Rain
4:54 PM 80.1 °F 83.6 °F 71.1 °F 74% 29.86 in 10.0 mi North 3.5 mph - 0.00 in   Scattered Clouds
5:35 PM 75.0 °F - 73.0 °F 94% 29.88 in 6.0 mi North 17.3 mph 21.9 mph 0.05 in Rain , Thunderstorm Light Thunderstorms and Rain
5:50 PM 75.2 °F - 73.4 °F 94% 29.89 in 10.0 mi North 5.8 mph - 0.05 in Rain , Thunderstorm Light Rain
5:54 PM 75.0 °F - 73.0 °F 94% 29.88 in 10.0 mi North 6.9 mph - 0.05 in Rain , Thunderstorm Light Rain
6:11 PM 75.0 °F - 73.0 °F 94% 29.89 in 10.0 mi North 4.6 mph - 0.00 in Rain Light Rain
6:54 PM 75.0 °F - 73.0 °F 94% 29.89 in 5.0 mi NW 4.6 mph - 0.04 in Rain Light Rain
7:54 PM 73.9 °F - 73.0 °F 97% 29.91 in 6.0 mi SSW 8.1 mph - 0.07 in Rain Rain
8:54 PM 73.0 °F - 72.0 °F 96% 29.89 in 9.0 mi Calm Calm - 0.08 in Rain Light Rain
9:54 PM 73.0 °F - 73.0 °F 100% 29.91 in 10.0 mi Calm Calm - 0.01 in Rain Light Rain
10:54 PM 73.0 °F - 72.0 °F 96% 29.91 in 10.0 mi Calm Calm - 0.01 in Rain Light Rain
11:54 PM 72.0 °F - 72.0 °F 100% 29.91 in 10.0 mi North 3.5 mph - 0.01 in Rain Light Rain